Time,TemperatureF,DewpointF,PressureIn,WindDirection,WindDirectionDegrees,WindSpeedMPH,WindSpeedGustMPH,Humidity,HourlyPrecipIn,Conditions,Clouds,dailyrainin,SolarRadiationWatts/m^2,SoftwareType,DateUTC
2013-02-25 00:01:00,38.0,28.0,-100.00,WSW,237,7.0,24.0,68,0.00,,,0.00,0.000000,,2013-02-25 08:01:00,
2013-02-25 00:11:00,38.0,28.0,-100.00,WSW,237,7.0,24.0,68,0.00,,,0.00,0.000000,,2013-02-25 08:11:00,
2013-02-25 00:31:00,36.0,29.0,-100.00,SW,220,7.0,15.0,74,-99.99,,,0.00,0.000000,,2013-02-25 08:31:00,
2013-02-25 00:52:00,36.0,29.0,-100.00,SW,220,7.0,15.0,74,-99.99,,,0.00,0.000000,,2013-02-25 08:52:00,
2013-02-25 01:01:00,36.0,29.0,-100.00,SW,220,7.0,15.0,74,-99.99,,,0.00,0.000000,,2013-02-25 09:01:00,
2013-02-25 01:12:00,36.0,29.0,-100.00,SW,220,7.0,15.0,74,-99.99,,,0.00,0.000000,,2013-02-25 09:12:00,
2013-02-25 01:21:00,36.0,29.0,-100.00,SW,220,7.0,15.0,74,-99.99,,,0.00,0.000000,,2013-02-25 09:21:00,
2013-02-25 01:31:00,36.0,30.0,-100.00,SW,223,8.0,18.0,78,0.00,,,0.00,0.000000,,2013-02-25 09:31:00,
2013-02-25 01:52:00,36.0,30.0,-100.00,SW,223,8.0,18.0,78,0.00,,,0.00,0.000000,,2013-02-25 09:52:00,
2013-02-25 02:01:00,36.0,30.0,-100.00,SW,223,8.0,18.0,78,0.00,,,0.00,0.000000,,2013-02-25 10:01:00,
2013-02-25 02:11:00,36.0,30.0,-100.00,SW,223,8.0,18.0,78,0.00,,,0.00,0.000000,,2013-02-25 10:11:00,
2013-02-25 02:21:00,36.0,30.0,-100.00,SW,223,8.0,18.0,78,0.00,,,0.00,0.000000,,2013-02-25 10:21:00,
2013-02-25 02:31:00,35.0,29.0,-100.00,SSW,199,8.0,15.0,79,0.00,,,0.00,0.000000,,2013-02-25 10:31:00,
2013-02-25 02:52:00,35.0,29.0,-100.00,SSW,199,8.0,15.0,79,0.00,,,0.00,0.000000,,2013-02-25 10:52:00,
2013-02-25 03:01:00,35.0,29.0,-100.00,SSW,199,8.0,15.0,79,0.00,,,0.00,0.000000,,2013-02-25 11:01:00,
2013-02-25 03:11:00,35.0,29.0,-100.00,SSW,199,8.0,15.0,79,0.00,,,0.00,0.000000,,2013-02-25 11:11:00,
2013-02-25 03:21:00,35.0,29.0,-100.00,SSW,199,8.0,15.0,79,0.00,,,0.00,0.000000,,2013-02-25 11:21:00,
2013-02-25 03:31:00,33.0,31.0,-100.00,SSW,212,4.0,17.0,94,0.02,,,-99.99,0.000000,,2013-02-25 11:31:00,
2013-02-25 03:52:00,33.0,31.0,-100.00,SSW,212,4.0,17.0,94,0.02,,,-99.99,0.000000,,2013-02-25 11:52:00,
2013-02-25 04:01:00,33.0,31.0,-100.00,SSW,212,4.0,17.0,94,0.02,,,-99.99,0.000000,,2013-02-25 12:01:00,
2013-02-25 04:11:00,33.0,31.0,-100.00,SSW,212,4.0,17.0,94,0.02,,,-99.99,0.000000,,2013-02-25 12:11:00,
2013-02-25 04:21:00,33.0,31.0,-100.00,SSW,212,4.0,17.0,94,0.02,,,-99.99,0.000000,,2013-02-25 12:21:00,
2013-02-25 04:31:00,33.0,31.0,-100.00,South,183,9.0,17.0,93,0.00,,,-99.99,0.000000,,2013-02-25 12:31:00,
2013-02-25 04:55:00,33.0,31.0,-100.00,South,183,9.0,17.0,93,0.00,,,-99.99,0.000000,,2013-02-25 12:55:00,
2013-02-25 05:02:00,33.0,31.0,-100.00,South,183,9.0,17.0,93,0.00,,,-99.99,0.000000,,2013-02-25 13:02:00,
2013-02-25 05:12:00,33.0,31.0,-100.00,South,183,9.0,17.0,93,0.00,,,-99.99,0.000000,,2013-02-25 13:12:00,
2013-02-25 05:22:00,33.0,31.0,-100.00,South,183,9.0,17.0,93,0.00,,,-99.99,0.000000,,2013-02-25 13:22:00,
2013-02-25 05:31:00,31.0,23.0,-100.00,SSW,196,6.0,25.0,72,0.00,,,0.02,0.000000,,2013-02-25 13:31:00,
2013-02-25 05:52:00,31.0,23.0,-100.00,SSW,196,6.0,25.0,72,0.00,,,0.02,0.000000,,2013-02-25 13:52:00,
2013-02-25 06:02:00,31.0,23.0,-100.00,SSW,196,6.0,25.0,72,0.00,,,0.02,0.000000,,2013-02-25 14:02:00,
2013-02-25 06:15:00,31.0,23.0,-100.00,SSW,196,6.0,25.0,72,0.00,,,0.02,0.000000,,2013-02-25 14:15:00,
2013-02-25 06:21:00,31.0,23.0,-100.00,SSW,196,6.0,25.0,72,0.00,,,0.02,0.000000,,2013-02-25 14:21:00,
2013-02-25 06:31:00,30.0,25.0,-100.00,WSW,249,8.0,21.0,81,0.00,,,-99.99,0.000000,,2013-02-25 14:31:00,
2013-02-25 06:52:00,30.0,25.0,-100.00,WSW,249,8.0,21.0,81,0.00,,,-99.99,0.000000,,2013-02-25 14:52:00,
2013-02-25 07:02:00,30.0,25.0,-100.00,WSW,249,8.0,21.0,81,0.00,,,-99.99,0.000000,,2013-02-25 15:02:00,
2013-02-25 07:11:00,30.0,25.0,-100.00,WSW,249,8.0,21.0,81,0.00,,,-99.99,0.000000,,2013-02-25 15:11:00,
2013-02-25 07:21:00,30.0,25.0,-100.00,WSW,249,8.0,21.0,81,0.00,,,-99.99,0.000000,,2013-02-25 15:21:00,
2013-02-25 07:31:00,30.0,28.0,-100.00,SSW,204,6.0,14.0,91,0.00,,,0.02,6.000000,,2013-02-25 15:31:00,
2013-02-25 07:52:00,30.0,28.0,-100.00,SSW,204,6.0,14.0,91,0.00,,,0.02,6.000000,,2013-02-25 15:52:00,
2013-02-25 08:01:00,30.0,28.0,-100.00,SSW,204,6.0,14.0,91,0.00,,,0.02,6.000000,,2013-02-25 16:01:00,
2013-02-25 08:11:00,30.0,28.0,-100.00,SSW,204,6.0,14.0,91,0.00,,,0.02,6.000000,,2013-02-25 16:11:00,
2013-02-25 08:21:00,30.0,28.0,-100.00,SSW,204,6.0,14.0,91,0.00,,,0.02,6.000000,,2013-02-25 16:21:00,
2013-02-25 08:31:00,35.0,30.0,-100.00,WSW,256,7.0,15.0,81,0.00,,,0.02,83.000000,,2013-02-25 16:31:00,
2013-02-25 08:52:00,35.0,30.0,-100.00,WSW,256,7.0,15.0,81,0.00,,,0.02,83.000000,,2013-02-25 16:52:00,
2013-02-25 09:01:00,35.0,30.0,-100.00,WSW,256,7.0,15.0,81,0.00,,,0.02,83.000000,,2013-02-25 17:01:00,
2013-02-25 09:11:00,35.0,30.0,-100.00,WSW,256,7.0,15.0,81,0.00,,,0.02,83.000000,,2013-02-25 17:11:00,
2013-02-25 09:21:00,35.0,30.0,-100.00,WSW,256,7.0,15.0,81,0.00,,,0.02,83.000000,,2013-02-25 17:21:00,
2013-02-25 09:31:00,31.0,26.0,-100.00,South,173,4.0,19.0,83,0.05,,,0.07,96.000000,,2013-02-25 17:31:00,
2013-02-25 09:52:00,31.0,26.0,-100.00,South,173,4.0,19.0,83,0.05,,,0.07,96.000000,,2013-02-25 17:52:00,
2013-02-25 10:01:00,31.0,26.0,-100.00,South,173,4.0,19.0,83,0.05,,,0.07,96.000000,,2013-02-25 18:01:00,
2013-02-25 10:12:00,31.0,26.0,-100.00,South,173,4.0,19.0,83,0.05,,,0.07,96.000000,,2013-02-25 18:12:00,
2013-02-25 10:21:00,31.0,26.0,-100.00,South,173,4.0,19.0,83,0.05,,,0.07,96.000000,,2013-02-25 18:21:00,
2013-02-25 10:31:00,34.0,31.0,-100.00,WSW,241,6.0,15.0,87,0.03,,,0.10,100.000000,,2013-02-25 18:31:00,
2013-02-25 10:52:00,34.0,31.0,-100.00,WSW,241,6.0,15.0,87,0.03,,,0.10,100.000000,,2013-02-25 18:52:00,
2013-02-25 11:01:00,34.0,31.0,-100.00,WSW,241,6.0,15.0,87,0.03,,,0.10,100.000000,,2013-02-25 19:01:00,
2013-02-25 11:11:00,34.0,31.0,-100.00,WSW,241,6.0,15.0,87,0.03,,,0.10,100.000000,,2013-02-25 19:11:00,
2013-02-25 11:21:00,34.0,31.0,-100.00,WSW,241,6.0,15.0,87,0.03,,,0.10,100.000000,,2013-02-25 19:21:00,
2013-02-25 11:31:00,33.0,29.0,-100.00,WSW,239,6.0,16.0,85,0.04,,,0.14,99.000000,,2013-02-25 19:31:00,
2013-02-25 11:52:00,33.0,29.0,-100.00,WSW,239,6.0,16.0,85,0.04,,,0.14,99.000000,,2013-02-25 19:52:00,
2013-02-25 12:01:00,33.0,29.0,-100.00,WSW,239,6.0,16.0,85,0.04,,,0.14,99.000000,,2013-02-25 20:01:00,
2013-02-25 12:11:00,33.0,29.0,-100.00,WSW,239,6.0,16.0,85,0.04,,,0.14,99.000000,,2013-02-25 20:11:00,
2013-02-25 12:21:00,33.0,29.0,-100.00,WSW,239,6.0,16.0,85,0.04,,,0.14,99.000000,,2013-02-25 20:21:00,
2013-02-25 12:31:00,35.0,29.0,-100.00,WSW,251,7.0,15.0,79,0.04,,,0.18,147.000000,,2013-02-25 20:31:00,
2013-02-25 12:52:00,35.0,29.0,-100.00,WSW,251,7.0,15.0,79,0.04,,,0.18,147.000000,,2013-02-25 20:52:00,
2013-02-25 13:01:00,35.0,29.0,-100.00,WSW,251,7.0,15.0,79,0.04,,,0.18,147.000000,,2013-02-25 21:01:00,
2013-02-25 13:11:00,35.0,29.0,-100.00,WSW,251,7.0,15.0,79,0.04,,,0.18,147.000000,,2013-02-25 21:11:00,
2013-02-25 13:21:00,35.0,29.0,-100.00,WSW,251,7.0,15.0,79,0.04,,,0.18,147.000000,,2013-02-25 21:21:00,
2013-02-25 13:31:00,38.0,31.0,-100.00,WSW,257,9.0,21.0,76,0.01,,,0.19,384.000000,,2013-02-25 21:31:00,
2013-02-25 13:52:00,38.0,31.0,-100.00,WSW,257,9.0,21.0,76,0.01,,,0.19,384.000000,,2013-02-25 21:52:00,
2013-02-25 14:01:00,38.0,31.0,-100.00,WSW,257,9.0,21.0,76,0.01,,,0.19,384.000000,,2013-02-25 22:01:00,
2013-02-25 14:11:00,38.0,31.0,-100.00,WSW,257,9.0,21.0,76,0.01,,,0.19,384.000000,,2013-02-25 22:11:00,
2013-02-25 14:21:00,38.0,31.0,-100.00,WSW,257,9.0,21.0,76,0.01,,,0.19,384.000000,,2013-02-25 22:21:00,
2013-02-25 14:31:00,36.0,25.0,-100.00,West,262,8.0,20.0,63,0.00,,,0.19,506.000000,,2013-02-25 22:31:00,
2013-02-25 14:52:00,36.0,25.0,-100.00,West,262,8.0,20.0,63,0.00,,,0.19,506.000000,,2013-02-25 22:52:00,
2013-02-25 15:01:00,36.0,25.0,-100.00,West,262,8.0,20.0,63,0.00,,,0.19,506.000000,,2013-02-25 23:01:00,
2013-02-25 15:11:00,36.0,25.0,-100.00,West,262,8.0,20.0,63,0.00,,,0.19,506.000000,,2013-02-25 23:11:00,
2013-02-25 15:22:00,36.0,25.0,-100.00,West,262,8.0,20.0,63,0.00,,,0.19,506.000000,,2013-02-25 23:22:00,
2013-02-25 15:31:00,36.0,28.0,-100.00,SSW,196,6.0,12.0,73,0.00,,,0.19,314.000000,,2013-02-25 23:31:00,
2013-02-25 15:52:00,36.0,28.0,-100.00,SSW,196,6.0,12.0,73,0.00,,,0.19,314.000000,,2013-02-25 23:52:00,
2013-02-25 16:01:00,36.0,28.0,-100.00,SSW,196,6.0,12.0,73,0.00,,,0.19,314.000000,,2013-02-26 00:01:00,
2013-02-25 16:11:00,36.0,28.0,-100.00,SSW,196,6.0,12.0,73,0.00,,,0.19,314.000000,,2013-02-26 00:11:00,
2013-02-25 16:21:00,36.0,28.0,-100.00,SSW,196,6.0,12.0,73,0.00,,,0.19,314.000000,,2013-02-26 00:21:00,
2013-02-25 16:31:00,29.0,18.0,-100.00,SW,234,9.0,24.0,62,0.00,,,0.19,169.000000,,2013-02-26 00:31:00,
2013-02-25 16:52:00,29.0,18.0,-100.00,SW,234,9.0,24.0,62,0.00,,,0.19,169.000000,,2013-02-26 00:52:00,
2013-02-25 17:02:00,29.0,18.0,-100.00,SW,234,9.0,24.0,62,0.00,,,0.19,169.000000,,2013-02-26 01:02:00,
2013-02-25 17:31:00,28.0,20.0,-100.00,SSW,211,6.0,25.0,72,0.00,,,0.19,36.000000,,2013-02-26 01:31:00,
2013-02-25 17:52:00,28.0,20.0,-100.00,SSW,211,6.0,25.0,72,0.00,,,0.19,36.000000,,2013-02-26 01:52:00,
2013-02-25 18:01:00,28.0,20.0,-100.00,SSW,211,6.0,25.0,72,0.00,,,0.19,36.000000,,2013-02-26 02:01:00,
2013-02-25 18:11:00,28.0,20.0,-100.00,SSW,211,6.0,25.0,72,0.00,,,0.19,36.000000,,2013-02-26 02:11:00,
2013-02-25 18:21:00,28.0,20.0,-100.00,SSW,211,6.0,25.0,72,0.00,,,0.19,36.000000,,2013-02-26 02:21:00,
2013-02-25 18:31:00,28.0,27.0,-100.00,East,88,2.0,12.0,94,0.00,,,0.19,0.000000,,2013-02-26 02:31:00,
2013-02-25 18:52:00,28.0,27.0,-100.00,East,88,2.0,12.0,94,0.00,,,0.19,0.000000,,2013-02-26 02:52:00,
2013-02-25 19:01:00,28.0,27.0,-100.00,East,88,2.0,12.0,94,0.00,,,0.19,0.000000,,2013-02-26 03:01:00,
2013-02-25 19:11:00,28.0,27.0,-100.00,East,88,2.0,12.0,94,0.00,,,0.19,0.000000,,2013-02-26 03:11:00,
2013-02-25 19:21:00,28.0,27.0,-100.00,East,88,2.0,12.0,94,0.00,,,0.19,0.000000,,2013-02-26 03:21:00,
2013-02-25 19:31:00,27.0,26.0,-100.00,SSW,211,2.0,6.0,94,0.00,,,0.19,0.000000,,2013-02-26 03:31:00,
2013-02-25 19:52:00,27.0,26.0,-100.00,SSW,211,2.0,6.0,94,0.00,,,0.19,0.000000,,2013-02-26 03:52:00,
2013-02-25 20:01:00,27.0,26.0,-100.00,SSW,211,2.0,6.0,94,0.00,,,0.19,0.000000,,2013-02-26 04:01:00,
2013-02-25 20:11:00,27.0,26.0,-100.00,SSW,211,2.0,6.0,94,0.00,,,0.19,0.000000,,2013-02-26 04:11:00,
2013-02-25 20:21:00,27.0,26.0,-100.00,SSW,211,2.0,6.0,94,0.00,,,0.19,0.000000,,2013-02-26 04:21:00,
2013-02-25 20:31:00,28.0,27.0,-100.00,NE,36,1.0,5.0,95,0.00,,,0.19,0.000000,,2013-02-26 04:31:00,
2013-02-25 20:52:00,28.0,27.0,-100.00,NE,36,1.0,5.0,95,0.00,,,0.19,0.000000,,2013-02-26 04:52:00,
2013-02-25 21:01:00,28.0,27.0,-100.00,NE,36,1.0,5.0,95,0.00,,,0.19,0.000000,,2013-02-26 05:01:00,
2013-02-25 21:11:00,28.0,27.0,-100.00,NE,36,1.0,5.0,95,0.00,,,0.19,0.000000,,2013-02-26 05:11:00,
2013-02-25 21:21:00,28.0,27.0,-100.00,NE,36,1.0,5.0,95,0.00,,,0.19,0.000000,,2013-02-26 05:21:00,
2013-02-25 21:31:00,27.0,26.0,-100.00,SW,227,3.0,9.0,94,0.00,,,0.19,0.000000,,2013-02-26 05:31:00,
2013-02-25 21:52:00,27.0,26.0,-100.00,SW,227,3.0,9.0,94,0.00,,,0.19,0.000000,,2013-02-26 05:52:00,
2013-02-25 22:01:00,27.0,26.0,-100.00,SW,227,3.0,9.0,94,0.00,,,0.19,0.000000,,2013-02-26 06:01:00,
2013-02-25 22:11:00,27.0,26.0,-100.00,SW,227,3.0,9.0,94,0.00,,,0.19,0.000000,,2013-02-26 06:11:00,
2013-02-25 22:21:00,27.0,26.0,-100.00,SW,227,3.0,9.0,94,0.00,,,0.19,0.000000,,2013-02-26 06:21:00,
2013-02-25 22:31:00,26.0,24.0,-100.00,SE,142,2.0,8.0,91,0.00,,,0.19,0.000000,,2013-02-26 06:31:00,
2013-02-25 22:52:00,26.0,24.0,-100.00,SE,142,2.0,8.0,91,0.00,,,0.19,0.000000,,2013-02-26 06:52:00,
2013-02-25 23:01:00,26.0,24.0,-100.00,SE,142,2.0,8.0,91,0.00,,,0.19,0.000000,,2013-02-26 07:01:00,
2013-02-25 23:11:00,26.0,24.0,-100.00,SE,142,2.0,8.0,91,0.00,,,0.19,0.000000,,2013-02-26 07:11:00,
2013-02-25 23:22:00,26.0,24.0,-100.00,SE,142,2.0,8.0,91,0.00,,,0.19,0.000000,,2013-02-26 07:22:00,
2013-02-25 23:31:00,24.0,22.0,-100.00,SW,220,2.0,6.0,92,0.00,,,0.19,0.000000,,2013-02-26 07:31:00,
2013-02-25 23:52:00,24.0,22.0,-100.00,SW,220,2.0,6.0,92,0.00,,,0.19,0.000000,,2013-02-26 07:52:00,